GW3215 Weather Reports


Display with metric or nautical units.
time (UTC)temp
F
wind
direction
speed
MPH
gust
MPH
rain 1hr
in
rain 24hr
in
rain mn
in
humidity
%
barometer
mb
20260505173025 79 248 2.0 10.0 0.00 0.00 0.00 41 1016.3
20260505171518 80 103 2.0 8.0 0.00 0.00 0.00 41 1016.3
20260505170025 78 211 2.0 8.0 0.00 0.00 0.00 38 1016.2
20260505164543 78 249 3.0 9.0 0.00 0.00 0.00 41 1016.3
20260505163012 77 248 2.0 9.0 0.00 0.00 0.00 39 1016.7
20260505161510 76 201 2.0 10.0 0.00 0.00 0.00 42 1016.6
20260505153031 74 263 1.0 8.0 0.00 0.00 0.00 54 1017.0
20260505151508 73 244 2.0 5.0 0.00 0.00 0.00 57 1017.3
20260505124518 56 217 2.0 7.0 0.00 0.00 0.00 92 1016.4
20260505123019 54 159 1.0 4.0 0.00 0.00 0.00 92 1016.4
20260505121522 53 152 0.0 3.0 0.00 0.00 0.00 92 1016.4
20260505120026 52 214 0.0 0.0 0.00 0.00 0.00 91 1016.3
20260505114533 52 214 0.0 0.0 0.00 0.00 0.00 90 1015.9
20260505113028 51 214 0.0 1.0 0.00 0.00 0.00 90 1015.9
20260505111520 51 214 0.0 2.0 0.00 0.00 0.00 89 1015.9
20260505101503 51 226 0.0 5.0 0.00 0.00 0.00 89 1015.6
20260505100004 51 200 1.0 5.0 0.00 0.00 0.00 89 1015.5
20260505094505 51 161 0.0 2.0 0.00 0.00 0.00 87 1015.5
20260505093008 51 219 0.0 1.0 0.00 0.00 0.00 85 1015.5
20260505091512 52 233 0.0 0.0 0.00 0.00 0.00 85 1015.4
20260505090003 52 233 0.0 1.0 0.00 0.00 0.00 84 1015.3
20260505084504 53 233 0.0 1.0 0.00 0.00 0.00 83 1015.3
20260505083006 53 233 0.0 1.0 0.00 0.00 0.00 82 1015.2
20260505081512 54 229 0.0 4.0 0.00 0.00 0.00 82 1015.2
20260505080017 54 228 0.0 7.0 0.00 0.00 0.00 82 1015.2
20260505074503 53 182 1.0 3.0 0.00 0.00 0.00 82 1015.0
20260505073005 53 205 1.0 5.0 0.00 0.00 0.00 83 1015.0
20260505071512 52 229 1.0 4.0 0.00 0.00 0.00 84 1015.0
20260505070012 51 238 0.0 4.0 0.00 0.00 0.00 87 1014.9
20260505064518 50 190 1.0 5.0 0.00 0.00 0.00 88 1014.9
20260505063026 50 192 0.0 1.0 0.00 0.00 0.00 88 1014.9
20260505061522 50 192 0.0 1.0 0.00 0.00 0.00 87 1015.0
20260505060008 51 192 0.0 1.0 0.00 0.00 0.00 86 1015.0
20260505054522 51 192 0.0 1.0 0.00 0.00 0.00 85 1015.2
20260505053019 51 192 0.0 0.0 0.00 0.00 0.00 83 1015.1
20260505051529 52 192 0.0 0.0 0.00 0.00 0.00 84 1015.3
20260505041521 54 192 0.0 0.0 0.00 0.00 0.00 81 1015.4
20260505040024 54 192 0.0 0.0 0.00 0.00 0.00 80 1015.5
20260505034507 55 192 0.0 0.0 0.00 0.00 0.00 80 1015.5
20260505033027 55 192 0.0 0.0 0.00 0.00 0.00 81 1015.5
20260505031520 55 192 0.0 0.0 0.00 0.00 0.00 78 1015.5
20260505030024 56 192 0.0 0.0 0.00 0.00 0.00 77 1015.5
20260505024549 57 192 0.0 0.0 0.00 0.00 0.00 77 1015.6
20260505023035 57 192 0.0 0.0 0.00 0.00 0.00 77 1015.4
20260505021529 58 192 0.0 0.0 0.00 0.00 0.00 76 1015.4
20260505020020 59 192 0.0 0.0 0.00 0.00 0.00 74 1015.3
20260505014526 59 192 0.0 0.0 0.00 0.00 0.00 72 1015.2
20260505013010 60 192 0.0 1.0 0.00 0.00 0.00 70 1015.0
20260505011518 61 192 0.0 1.0 0.00 0.00 0.00 69 1014.7
20260505010019 62 200 0.0 1.0 0.00 0.00 0.00 66 1014.7
20260505004510 63 200 0.0 1.0 0.00 0.00 0.00 63 1014.4
20260505003006 66 200 0.0 1.0 0.00 0.00 0.00 63 1014.2
20260505001513 67 200 0.0 0.0 0.00 0.00 0.00 61 1014.3
20260505000015 68 200 0.0 1.0 0.00 0.00 0.00 59 1014.1
20260504234521 69 213 0.0 1.0 0.00 0.00 0.00 57 1014.0
20260504233012 71 205 0.0 1.0 0.00 0.00 0.00 56 1014.0
20260504231510 72 198 0.0 2.0 0.00 0.00 0.00 55 1014.1
20260504230014 73 209 0.0 2.0 0.00 0.00 0.00 48 1014.0
20260504224517 74 210 1.0 5.0 0.00 0.00 0.00 42 1014.0
20260504223029 75 161 0.0 5.0 0.00 0.00 0.00 42 1014.2
20260504221508 75 222 0.0 5.0 0.00 0.00 0.00 44 1014.2
20260504220010 76 175 1.0 6.0 0.00 0.00 0.00 45 1014.2
20260504214515 76 240 0.0 7.0 0.00 0.00 0.00 43 1014.2
20260504213022 77 240 1.0 6.0 0.00 0.00 0.00 36 1014.0
20260504211525 78 159 1.0 6.0 0.00 0.00 0.00 36 1014.0
20260504210008 78 235 1.0 6.0 0.00 0.00 0.00 37 1014.1
20260504204517 79 348 1.0 6.0 0.00 0.00 0.00 35 1014.2
20260504203020 81 200 2.0 7.0 0.00 0.00 0.00 29 1014.2
20260504201521 80 216 1.0 5.0 0.00 0.00 0.00 31 1014.1
20260504200024 80 136 1.0 6.0 0.00 0.00 0.00 29 1014.3
20260504194513 80 126 1.0 5.0 0.00 0.00 0.00 35 1014.6
20260504193015 79 304 1.0 8.0 0.00 0.00 0.00 33 1014.8
20260504191520 80 180 1.0 7.0 0.00 0.00 0.00 35 1015.0
20260504190029 79 173 2.0 7.0 0.00 0.00 0.00 33 1015.3
20260504184533 79 229 1.0 7.0 0.00 0.00 0.00 36 1015.7
20260504183016 77 242 3.0 6.0 0.00 0.00 0.00 32 1015.7
20260504181518 78 246 1.0 6.0 0.00 0.00 0.00 30 1015.8
20260504180022 77 232 2.0 6.0 0.00 0.00 0.00 34 1016.0
20260504174527 76 151 1.0 4.0 0.00 0.00 0.00 35 1016.1